Kbely Air Base

Jump to: basic info | weather | frequencies | runways | comments

Related pages: nearby airports | nearby navaids | notams | map

Basic information (top)

Codes: LKKB
Location: lon 50.121399, lat 14.543600, elev 939 ft / 286 m msl
Status: medium_airport

Weather (top)

Current conditions (rec'd 2014/09/02 16:00Z):

LKKB 021600Z 35005KT 310V040 9999 FEW010 OVC015 14/12 Q1019 NOSIG

Airport forecast (rec'd 2014/09/02 06:00Z):

TAF COR LKKB 020500Z 0206/0306 31008KT 9999 -RA BKN030 OVC035 PROB30 
      TEMPO 0206/0212 4000 RA BR BKN010 
      BECMG 0212/0214 9999 NSW BKN030 
      TEMPO 0212/0306 9999 RA BKN030

Frequencies (top)

Verify before use: may be inaccurate or out of date.

APP: 124.675 MHz (APP)
GCA: 123.3 MHz (PRECISION)
TWR: 120.875 MHz (TWR)

Runways (top)

06/24: 6,562 x 148 ft (2,000 x 45 m) — paved — lighted

Latest comments (top)

No comments yet for Kbely Air Base

More... (top)

See also NOTAMs and nearby airports and navaids, or visit the Kbely Air Base page at the main OurAirports website..